User: anonymous   Login
Location: Holyhead Bay
(53.3667°N, 4.6667°W)
Time: 23:11:18
(UTC+00:00)
Language:

Aureole 2 Rocket - Orbit

View from above orbital plane
View from above orbital plane
View from above satellite
View from above satellite

Ground track
Ground track

The orbit data is extracted from the following two-line orbital elements,

1 07004U 73107B   21059.60689252  .00047639  24825-5  21872-3 0  9992
2 07004  73.9132 291.3807 0065687 172.7664 187.4529 15.80351549447476
Epoch (UTC): 28 February 2021 14:33:55
Eccentricity: 0.0065687
inclination: 73.9132°
perigee height: 285 km
apogee height: 373 km
right ascension of ascending node: 291.3807°
argument of perigee: 172.7664°
revolutions per day: 15.80351549
mean anomaly at epoch: 187.4529°
orbit number at epoch: 44747

The dashed part of the orbit path shows where the satellite is in the earth's shadow,  

DLR